Year,Month,Day,Hour,Minute,Value (Times are PST for temperature in C)
2013,07,13,00,04,13.20
2013,07,13,00,06,13.20
2013,07,13,00,07,13.20
2013,07,13,00,08,13.20
2013,07,13,00,10,13.10
2013,07,13,00,11,13.10
2013,07,13,00,12,13.10
2013,07,13,00,13,13.10
2013,07,13,00,14,13.10
2013,07,13,00,16,13.10
2013,07,13,00,17,13.10
2013,07,13,00,23,13.00
2013,07,13,00,24,13.00
2013,07,13,00,26,12.90
2013,07,13,00,27,12.90
2013,07,13,00,28,12.90
2013,07,13,00,30,12.90
2013,07,13,00,31,12.90
2013,07,13,00,33,12.90
2013,07,13,00,35,12.80
2013,07,13,00,37,12.80
2013,07,13,00,38,12.80
2013,07,13,00,40,12.80
2013,07,13,00,41,12.80
2013,07,13,00,42,12.80
2013,07,13,00,43,12.80
2013,07,13,00,45,12.80
2013,07,13,00,46,12.80
2013,07,13,00,47,12.80
2013,07,13,00,48,12.80
2013,07,13,00,49,12.80
2013,07,13,00,50,12.80
2013,07,13,00,51,12.80
2013,07,13,00,53,12.80
2013,07,13,00,55,12.80
2013,07,13,00,56,12.80
2013,07,13,00,57,12.70
2013,07,13,00,58,12.70
2013,07,13,01,00,12.70
2013,07,13,01,02,12.70
2013,07,13,01,06,12.70
2013,07,13,01,07,12.70
2013,07,13,01,08,12.60
2013,07,13,01,10,12.60
2013,07,13,01,11,12.60
2013,07,13,01,13,12.60
2013,07,13,01,14,12.60
2013,07,13,01,15,12.60
2013,07,13,01,17,12.60
2013,07,13,01,18,12.60
2013,07,13,01,20,12.60
2013,07,13,01,22,12.60
2013,07,13,01,23,12.60
2013,07,13,01,24,12.50
2013,07,13,01,27,12.50
2013,07,13,01,28,12.50
2013,07,13,01,29,12.40
2013,07,13,01,30,12.50
2013,07,13,01,31,12.40
2013,07,13,01,32,12.40
2013,07,13,01,34,12.40
2013,07,13,01,35,12.40
2013,07,13,01,36,12.40
2013,07,13,01,37,12.40
2013,07,13,01,38,12.40
2013,07,13,01,40,12.40
2013,07,13,01,41,12.40
2013,07,13,01,42,12.40
2013,07,13,01,43,12.40
2013,07,13,01,44,12.40
2013,07,13,01,46,12.40
2013,07,13,01,47,12.40
2013,07,13,01,48,12.40
2013,07,13,01,49,12.40
2013,07,13,01,50,12.40
2013,07,13,01,51,12.30
2013,07,13,01,52,12.30
2013,07,13,01,53,12.30
2013,07,13,01,55,12.30
2013,07,13,01,56,12.30
2013,07,13,01,57,12.30
2013,07,13,01,58,12.30
2013,07,13,02,00,12.30
2013,07,13,02,01,12.30
2013,07,13,02,02,12.30
2013,07,13,02,03,12.30
2013,07,13,02,05,12.30
2013,07,13,02,06,12.30
2013,07,13,02,07,12.30
2013,07,13,02,08,12.20
2013,07,13,02,09,12.20
2013,07,13,02,10,12.20
2013,07,13,02,11,12.20
2013,07,13,02,13,12.20
2013,07,13,02,14,12.20
2013,07,13,02,16,12.20
2013,07,13,02,18,12.20
2013,07,13,02,19,12.20
2013,07,13,02,20,12.20
2013,07,13,02,21,12.20
2013,07,13,02,22,12.20
2013,07,13,02,23,12.20
2013,07,13,02,24,12.10
2013,07,13,02,25,12.10
2013,07,13,02,26,12.10
2013,07,13,02,27,12.10
2013,07,13,02,28,12.10
2013,07,13,02,29,12.10
2013,07,13,02,30,12.10
2013,07,13,02,31,12.10
2013,07,13,02,32,12.10
2013,07,13,02,33,12.10
2013,07,13,02,34,12.10
2013,07,13,02,35,12.10
2013,07,13,02,36,12.10
2013,07,13,02,37,12.10
2013,07,13,02,38,12.10
2013,07,13,02,39,12.10
2013,07,13,02,40,12.10
2013,07,13,02,41,12.10
2013,07,13,02,42,12.10
2013,07,13,02,43,12.10
2013,07,13,02,44,12.10
2013,07,13,02,45,12.10
2013,07,13,02,46,12.10
2013,07,13,02,47,12.10
2013,07,13,02,48,12.10
2013,07,13,02,49,12.10
2013,07,13,02,51,12.10
2013,07,13,02,52,12.10
2013,07,13,02,53,12.10
2013,07,13,02,54,12.10
2013,07,13,02,56,12.10
2013,07,13,02,57,12.10
2013,07,13,02,58,12.10
2013,07,13,02,59,12.10
2013,07,13,03,01,12.10
2013,07,13,03,02,12.10
2013,07,13,03,03,12.10
2013,07,13,03,04,12.10
2013,07,13,03,05,12.10
2013,07,13,03,06,12.10
2013,07,13,03,07,12.10
2013,07,13,03,08,12.10
2013,07,13,03,09,12.10
2013,07,13,03,11,12.00
2013,07,13,03,12,12.00
2013,07,13,03,13,12.00
2013,07,13,03,14,12.00
2013,07,13,03,15,12.00
2013,07,13,03,16,12.00
2013,07,13,03,17,12.00
2013,07,13,03,18,12.00
2013,07,13,03,19,12.00
2013,07,13,03,20,12.00
2013,07,13,03,21,11.90
2013,07,13,03,22,11.90
2013,07,13,03,24,11.90
2013,07,13,03,25,11.90
2013,07,13,03,26,11.90
2013,07,13,03,27,11.90
2013,07,13,03,28,11.90
2013,07,13,03,29,11.90
2013,07,13,03,31,11.90
2013,07,13,03,32,11.90
2013,07,13,03,33,11.90
2013,07,13,03,35,11.90
2013,07,13,03,36,11.90
2013,07,13,03,37,11.80
2013,07,13,03,39,11.80
2013,07,13,03,40,11.80
2013,07,13,03,41,11.80
2013,07,13,03,42,11.80
2013,07,13,03,44,11.80
2013,07,13,03,45,11.80
2013,07,13,03,46,11.80
2013,07,13,03,47,11.70
2013,07,13,03,49,11.70
2013,07,13,03,50,11.80
2013,07,13,03,51,11.70
2013,07,13,03,53,11.70
2013,07,13,03,54,11.70
2013,07,13,03,55,11.70
2013,07,13,03,56,11.70
2013,07,13,03,58,11.70
2013,07,13,03,59,11.70
2013,07,13,04,00,11.70
2013,07,13,04,01,11.70
2013,07,13,04,03,11.70
2013,07,13,04,05,11.60
2013,07,13,04,08,11.60
2013,07,13,04,09,11.60
2013,07,13,04,10,11.60
2013,07,13,04,11,11.60
2013,07,13,04,13,11.50
2013,07,13,04,14,11.50
2013,07,13,04,15,11.50
2013,07,13,04,16,11.50
2013,07,13,04,18,11.50
2013,07,13,04,19,11.50
2013,07,13,04,20,11.50
2013,07,13,04,22,11.50
2013,07,13,04,23,11.40
2013,07,13,04,24,11.40
2013,07,13,04,25,11.40
2013,07,13,04,27,11.40
2013,07,13,04,28,11.40
2013,07,13,04,29,11.40
2013,07,13,04,30,11.30
2013,07,13,04,31,11.30
2013,07,13,04,32,11.30
2013,07,13,04,33,11.30
2013,07,13,04,34,11.30
2013,07,13,04,35,11.30
2013,07,13,04,36,11.30
2013,07,13,04,38,11.30
2013,07,13,04,39,11.30
2013,07,13,04,40,11.30
2013,07,13,04,41,11.30
2013,07,13,04,42,11.30
2013,07,13,04,43,11.20
2013,07,13,04,44,11.20
2013,07,13,04,45,11.20
2013,07,13,04,46,11.20
2013,07,13,04,48,11.20
2013,07,13,04,49,11.20
2013,07,13,04,50,11.20
2013,07,13,04,51,11.20
2013,07,13,04,52,11.20
2013,07,13,04,53,11.20
2013,07,13,04,54,11.20
2013,07,13,04,55,11.20
2013,07,13,04,56,11.20
2013,07,13,04,57,11.20
2013,07,13,04,58,11.20
2013,07,13,04,59,11.20
2013,07,13,05,00,11.20
2013,07,13,05,02,11.20
2013,07,13,05,03,11.10
2013,07,13,05,04,11.10
2013,07,13,05,05,11.10
2013,07,13,05,07,11.10
2013,07,13,05,08,11.10
2013,07,13,05,09,11.10
2013,07,13,05,10,11.10
2013,07,13,05,12,11.10
2013,07,13,05,13,11.10
2013,07,13,05,14,11.10
2013,07,13,05,15,11.10
2013,07,13,05,17,11.10
2013,07,13,05,18,11.10
2013,07,13,05,19,11.00
2013,07,13,05,20,11.00
2013,07,13,05,22,10.90
2013,07,13,05,23,10.90
2013,07,13,05,24,10.90
2013,07,13,05,25,10.90
2013,07,13,05,27,10.80
2013,07,13,05,28,10.80
2013,07,13,05,29,10.80
2013,07,13,05,30,10.80
2013,07,13,05,32,10.80
2013,07,13,05,33,10.80
2013,07,13,05,34,10.80
2013,07,13,05,35,10.80
2013,07,13,05,36,10.80
2013,07,13,05,37,10.80
2013,07,13,05,38,10.80
2013,07,13,05,39,10.90
2013,07,13,05,40,10.90
2013,07,13,05,41,10.90
2013,07,13,05,42,10.90
2013,07,13,05,43,10.90
2013,07,13,05,44,10.90
2013,07,13,05,45,10.90
2013,07,13,05,47,10.90
2013,07,13,05,48,10.90
2013,07,13,05,49,10.90
2013,07,13,05,51,10.90
2013,07,13,05,52,10.90
2013,07,13,05,53,10.90
2013,07,13,05,54,10.90
2013,07,13,05,56,10.90
2013,07,13,05,57,10.90
2013,07,13,05,58,10.80
2013,07,13,05,59,10.80
2013,07,13,06,00,10.80
2013,07,13,06,02,10.80
2013,07,13,06,03,10.80
2013,07,13,06,04,10.80
2013,07,13,06,05,10.80
2013,07,13,06,07,10.80
2013,07,13,06,08,10.80
2013,07,13,06,09,10.90
2013,07,13,06,10,10.90
2013,07,13,06,11,10.90
2013,07,13,06,13,10.90
2013,07,13,06,14,10.90
2013,07,13,06,15,10.90
2013,07,13,06,16,10.90
2013,07,13,06,17,10.90
2013,07,13,06,18,10.90
2013,07,13,06,19,10.90
2013,07,13,06,20,10.90
2013,07,13,06,21,10.90
2013,07,13,06,23,11.00
2013,07,13,06,24,11.00
2013,07,13,06,25,11.00
2013,07,13,06,26,11.00
2013,07,13,06,27,11.00
2013,07,13,06,29,11.00
2013,07,13,06,30,11.10
2013,07,13,06,31,11.10
2013,07,13,06,33,11.10
2013,07,13,06,34,11.10
2013,07,13,06,35,11.10
2013,07,13,06,36,11.10
2013,07,13,06,38,11.10
2013,07,13,06,39,11.10
2013,07,13,06,40,11.10
2013,07,13,06,41,11.20
2013,07,13,06,42,11.20
2013,07,13,06,43,11.20
2013,07,13,06,44,11.20
2013,07,13,06,45,11.30
2013,07,13,06,46,11.30
2013,07,13,06,48,11.30
2013,07,13,06,49,11.40
2013,07,13,06,50,11.50
2013,07,13,06,51,11.60
2013,07,13,06,53,11.60
2013,07,13,06,54,11.70
2013,07,13,06,55,11.80
2013,07,13,06,56,11.80
2013,07,13,06,58,11.80
2013,07,13,06,59,11.90
2013,07,13,07,00,12.00
2013,07,13,07,01,12.10
2013,07,13,07,03,12.10
2013,07,13,07,04,12.20
2013,07,13,07,05,12.20
2013,07,13,07,06,12.30
2013,07,13,07,08,12.30
2013,07,13,07,09,12.50
2013,07,13,07,10,12.60
2013,07,13,07,12,12.70
2013,07,13,07,13,12.80
2013,07,13,07,14,13.00
2013,07,13,07,15,13.10
2013,07,13,07,17,13.20
2013,07,13,07,18,13.30
2013,07,13,07,19,13.30
2013,07,13,07,20,13.40
2013,07,13,07,21,13.50
2013,07,13,07,22,13.50
2013,07,13,07,23,13.50
2013,07,13,07,24,13.60
2013,07,13,07,26,13.60
2013,07,13,07,27,13.60
2013,07,13,07,28,13.70
2013,07,13,07,29,13.70
2013,07,13,07,30,13.70
2013,07,13,07,32,13.80
2013,07,13,07,33,13.90
2013,07,13,07,34,14.00
2013,07,13,07,35,14.10
2013,07,13,07,37,14.20
2013,07,13,07,38,14.40
2013,07,13,07,39,14.50
2013,07,13,07,40,14.60
2013,07,13,07,41,14.60
2013,07,13,07,42,14.70
2013,07,13,07,43,14.80
2013,07,13,07,44,14.80
2013,07,13,07,46,14.80
2013,07,13,07,47,14.90
2013,07,13,07,48,15.00
2013,07,13,07,49,15.00
2013,07,13,07,51,15.10
2013,07,13,07,52,15.10
2013,07,13,07,53,15.20
2013,07,13,07,54,15.30
2013,07,13,07,55,15.30
2013,07,13,07,57,15.30
2013,07,13,07,58,15.40
2013,07,13,07,59,15.40
2013,07,13,08,00,15.50
2013,07,13,08,01,15.50
2013,07,13,08,02,15.50
2013,07,13,08,03,15.40
2013,07,13,08,04,15.40
2013,07,13,08,05,15.30
2013,07,13,08,06,15.30
2013,07,13,08,07,15.30
2013,07,13,08,08,15.30
2013,07,13,08,09,15.30
2013,07,13,08,10,15.30
2013,07,13,08,11,15.30
2013,07,13,08,12,15.30
2013,07,13,08,13,15.40
2013,07,13,08,14,15.40
2013,07,13,08,15,15.60
2013,07,13,08,16,15.70
2013,07,13,08,17,15.80
2013,07,13,08,19,15.80
2013,07,13,08,20,15.90
2013,07,13,08,21,16.10
2013,07,13,08,22,16.10
2013,07,13,08,24,16.20
2013,07,13,08,25,16.30
2013,07,13,08,26,16.30
2013,07,13,08,27,16.30
2013,07,13,08,29,16.30
2013,07,13,08,31,16.30
2013,07,13,08,33,16.40
2013,07,13,08,34,16.40
2013,07,13,08,35,16.60
2013,07,13,08,36,16.60
2013,07,13,08,38,16.70
2013,07,13,08,39,16.80
2013,07,13,08,40,16.90
2013,07,13,08,41,16.90
2013,07,13,08,43,17.10
2013,07,13,08,44,17.20
2013,07,13,08,45,17.20
2013,07,13,08,47,17.30
2013,07,13,08,48,17.40
2013,07,13,08,49,17.60
2013,07,13,08,50,17.60
2013,07,13,08,52,17.70
2013,07,13,08,53,17.80
2013,07,13,08,54,17.90
2013,07,13,08,55,17.90
2013,07,13,08,56,17.80
2013,07,13,08,58,17.80
2013,07,13,08,59,17.80
2013,07,13,09,00,17.70
2013,07,13,09,01,17.70
2013,07,13,09,02,17.70
2013,07,13,09,03,17.70
2013,07,13,09,04,17.70
2013,07,13,09,05,17.70
2013,07,13,09,06,17.70
2013,07,13,09,08,17.70
2013,07,13,09,09,17.70
2013,07,13,09,10,17.80
2013,07,13,09,11,17.80
2013,07,13,09,13,17.80
2013,07,13,09,14,17.80
2013,07,13,09,15,17.80
2013,07,13,09,16,17.90
2013,07,13,09,18,17.90
2013,07,13,09,19,17.90
2013,07,13,09,20,17.90
2013,07,13,09,22,17.90
2013,07,13,09,23,17.90
2013,07,13,09,24,17.90
2013,07,13,09,26,18.00
2013,07,13,09,27,18.10
2013,07,13,09,28,18.20
2013,07,13,09,29,18.20
2013,07,13,09,30,18.30
2013,07,13,09,31,18.30
2013,07,13,09,32,18.30
2013,07,13,09,33,18.30
2013,07,13,09,34,18.30
2013,07,13,09,35,18.30
2013,07,13,09,37,18.40
2013,07,13,09,38,18.50
2013,07,13,09,39,18.60
2013,07,13,09,40,18.60
2013,07,13,09,41,18.60
2013,07,13,09,42,18.70
2013,07,13,09,43,18.60
2013,07,13,09,44,18.50
2013,07,13,09,45,18.40
2013,07,13,09,47,18.40
2013,07,13,09,48,18.40
2013,07,13,09,49,18.50
2013,07,13,09,50,18.60
2013,07,13,09,52,18.60
2013,07,13,09,53,18.60
2013,07,13,09,54,18.60
2013,07,13,09,55,18.60
2013,07,13,09,57,18.40
2013,07,13,09,58,18.40
2013,07,13,09,59,18.40
2013,07,13,10,00,18.40
2013,07,13,10,02,18.40
2013,07,13,10,03,18.50
2013,07,13,10,04,18.60
2013,07,13,10,05,18.60
2013,07,13,10,07,18.70
2013,07,13,10,08,18.60
2013,07,13,10,09,18.60
2013,07,13,10,10,18.50
2013,07,13,10,11,18.50
2013,07,13,10,13,18.40
2013,07,13,10,14,18.30
2013,07,13,10,15,18.30
2013,07,13,10,16,18.20
2013,07,13,10,17,18.10
2013,07,13,10,18,18.10
2013,07,13,10,19,18.10
2013,07,13,10,20,18.10
2013,07,13,10,21,18.20
2013,07,13,10,22,18.20
2013,07,13,10,23,18.20
2013,07,13,10,24,18.20
2013,07,13,10,25,18.20
2013,07,13,10,26,18.20
2013,07,13,10,28,18.20
2013,07,13,10,29,18.20
2013,07,13,10,30,18.30
2013,07,13,10,31,18.30
2013,07,13,10,32,18.30
2013,07,13,10,33,18.40
2013,07,13,10,34,18.30
2013,07,13,10,35,18.30
2013,07,13,10,36,18.30
2013,07,13,10,37,18.30
2013,07,13,10,38,18.20
2013,07,13,10,39,18.20
2013,07,13,10,40,18.20
2013,07,13,10,41,18.20
2013,07,13,10,42,18.20
2013,07,13,10,43,18.20
2013,07,13,10,44,18.10
2013,07,13,10,45,18.10
2013,07,13,10,46,18.10
2013,07,13,10,47,18.20
2013,07,13,10,49,18.20
2013,07,13,10,50,18.10
2013,07,13,10,51,18.10
2013,07,13,10,52,18.10
2013,07,13,10,53,18.10
2013,07,13,10,54,18.10
2013,07,13,10,55,18.10
2013,07,13,10,56,18.20
2013,07,13,10,57,18.20
2013,07,13,10,58,18.20
2013,07,13,10,59,18.20
2013,07,13,11,00,18.30
2013,07,13,11,01,18.40
2013,07,13,11,02,18.40
2013,07,13,11,03,18.40
2013,07,13,11,05,18.50
2013,07,13,11,06,18.60
2013,07,13,11,07,18.60
2013,07,13,11,08,18.60
2013,07,13,11,10,18.60
2013,07,13,11,11,18.50
2013,07,13,11,12,18.40
2013,07,13,11,13,18.40
2013,07,13,11,15,18.50
2013,07,13,11,16,18.50
2013,07,13,11,17,18.30
2013,07,13,11,18,18.30
2013,07,13,11,20,18.40
2013,07,13,11,21,18.40
2013,07,13,11,22,18.50
2013,07,13,11,23,18.50
2013,07,13,11,25,18.40
2013,07,13,11,26,18.40
2013,07,13,11,27,18.50
2013,07,13,11,29,18.50
2013,07,13,11,30,18.40
2013,07,13,11,31,18.40
2013,07,13,11,32,18.40
2013,07,13,11,33,18.40
2013,07,13,11,34,18.40
2013,07,13,11,35,18.30
2013,07,13,11,36,18.30
2013,07,13,11,37,18.30
2013,07,13,11,39,18.30
2013,07,13,11,40,18.30
2013,07,13,11,41,18.30
2013,07,13,11,42,18.40
2013,07,13,11,43,18.40
2013,07,13,11,45,18.40
2013,07,13,11,46,18.60
2013,07,13,11,47,18.60
2013,07,13,11,48,18.70
2013,07,13,11,50,18.70
2013,07,13,11,51,18.70
2013,07,13,11,52,18.60
2013,07,13,11,53,18.60
2013,07,13,11,54,18.60
2013,07,13,11,55,18.60
2013,07,13,11,56,18.70
2013,07,13,11,57,18.70
2013,07,13,11,59,18.70
2013,07,13,12,00,18.80
2013,07,13,12,01,18.80
2013,07,13,12,02,18.80
2013,07,13,12,04,18.80
2013,07,13,12,05,18.90
2013,07,13,12,06,19.00
2013,07,13,12,07,19.10
2013,07,13,12,09,19.00
2013,07,13,12,10,19.00
2013,07,13,12,11,19.00
2013,07,13,12,13,18.90
2013,07,13,12,14,18.90
2013,07,13,12,15,19.00
2013,07,13,12,16,19.10
2013,07,13,12,17,19.20
2013,07,13,12,18,19.30
2013,07,13,12,19,19.40
2013,07,13,12,20,19.60
2013,07,13,12,21,19.60
2013,07,13,12,22,19.70
2013,07,13,12,23,19.70
2013,07,13,12,24,19.70
2013,07,13,12,26,19.70
2013,07,13,12,27,19.70
2013,07,13,12,28,19.70
2013,07,13,12,29,19.70
2013,07,13,12,31,19.70
2013,07,13,12,32,19.60
2013,07,13,12,34,19.50
2013,07,13,12,35,19.40
2013,07,13,12,36,19.30
2013,07,13,12,37,19.30
2013,07,13,12,38,19.30
2013,07,13,12,39,19.40
2013,07,13,12,40,19.60
2013,07,13,12,41,19.70
2013,07,13,12,42,19.80
2013,07,13,12,44,19.90
2013,07,13,12,45,19.90
2013,07,13,12,46,19.90
2013,07,13,12,47,19.80
2013,07,13,12,49,19.80
2013,07,13,12,50,19.80
2013,07,13,12,51,19.80
2013,07,13,12,52,19.70
2013,07,13,12,54,19.70
2013,07,13,12,55,19.70
2013,07,13,12,56,19.80
2013,07,13,12,57,19.80
2013,07,13,12,58,19.80
2013,07,13,13,00,19.80
2013,07,13,13,01,19.90
2013,07,13,13,02,20.10
2013,07,13,13,03,20.30
2013,07,13,13,05,20.30
2013,07,13,13,06,20.50
2013,07,13,13,07,20.50
2013,07,13,13,08,20.50
2013,07,13,13,10,20.50
2013,07,13,13,11,20.60
2013,07,13,13,12,20.60
2013,07,13,13,13,20.60
2013,07,13,13,14,20.60
2013,07,13,13,16,20.60
2013,07,13,13,17,20.60
2013,07,13,13,18,20.60
2013,07,13,13,20,20.70
2013,07,13,13,21,20.80
2013,07,13,13,22,20.80
2013,07,13,13,23,20.80
2013,07,13,13,24,20.70
2013,07,13,13,26,20.80
2013,07,13,13,27,20.80
2013,07,13,13,28,20.80
2013,07,13,13,30,20.90
2013,07,13,13,31,20.90
2013,07,13,13,32,21.00
2013,07,13,13,33,20.90
2013,07,13,13,34,20.90
2013,07,13,13,35,20.80
2013,07,13,13,36,20.80
2013,07,13,13,37,20.80
2013,07,13,13,38,20.70
2013,07,13,13,39,20.70
2013,07,13,13,40,20.60
2013,07,13,13,41,20.70
2013,07,13,13,42,20.70
2013,07,13,13,43,20.70
2013,07,13,13,44,20.80
2013,07,13,13,45,20.80
2013,07,13,13,46,20.90
2013,07,13,13,47,20.90
2013,07,13,13,49,21.00
2013,07,13,13,50,20.90
2013,07,13,13,51,20.90
2013,07,13,13,53,20.90
2013,07,13,13,54,20.90
2013,07,13,13,55,20.90
2013,07,13,13,56,20.90
2013,07,13,13,57,20.80
2013,07,13,13,58,20.80
2013,07,13,13,59,20.80
2013,07,13,14,00,20.90
2013,07,13,14,01,21.00
2013,07,13,14,02,21.00
2013,07,13,14,03,21.00
2013,07,13,14,04,21.10
2013,07,13,14,05,21.10
2013,07,13,14,07,21.10
2013,07,13,14,08,20.90
2013,07,13,14,09,20.80
2013,07,13,14,11,20.80
2013,07,13,14,12,20.80
2013,07,13,14,13,20.80
2013,07,13,14,15,20.80
2013,07,13,14,16,20.90
2013,07,13,14,17,20.90
2013,07,13,14,18,20.80
2013,07,13,14,20,20.80
2013,07,13,14,21,20.70
2013,07,13,14,22,20.60
2013,07,13,14,23,20.60
2013,07,13,14,24,20.70
2013,07,13,14,26,20.70
2013,07,13,14,27,20.80
2013,07,13,14,28,20.90
2013,07,13,14,30,21.00
2013,07,13,14,31,21.10
2013,07,13,14,32,21.20
2013,07,13,14,33,21.20
2013,07,13,14,34,21.20
2013,07,13,14,36,21.20
2013,07,13,14,37,21.20
2013,07,13,14,38,21.20
2013,07,13,14,39,21.30
2013,07,13,14,40,21.30
2013,07,13,14,41,21.40
2013,07,13,14,42,21.40
2013,07,13,14,43,21.50
2013,07,13,14,44,21.60
2013,07,13,14,45,21.50
2013,07,13,14,46,21.50
2013,07,13,14,47,21.40
2013,07,13,14,48,21.40
2013,07,13,14,49,21.40
2013,07,13,14,50,21.40
2013,07,13,14,51,21.40
2013,07,13,14,52,21.40
2013,07,13,14,53,21.40
2013,07,13,14,54,21.40
2013,07,13,14,55,21.50
2013,07,13,14,56,21.60
2013,07,13,14,57,21.60
2013,07,13,14,58,21.60
2013,07,13,14,59,21.60
2013,07,13,15,00,21.60
2013,07,13,15,02,21.50
2013,07,13,15,03,21.60
2013,07,13,15,04,21.60
2013,07,13,15,05,21.60
2013,07,13,15,06,21.70
2013,07,13,15,07,21.70
2013,07,13,15,08,21.70
2013,07,13,15,09,21.80
2013,07,13,15,10,21.80
2013,07,13,15,12,21.80
2013,07,13,15,13,21.80
2013,07,13,15,14,21.80
2013,07,13,15,16,21.90
2013,07,13,15,17,21.80
2013,07,13,15,18,21.80
2013,07,13,15,19,21.80
2013,07,13,15,21,21.80
2013,07,13,15,22,21.80
2013,07,13,15,23,21.80
2013,07,13,15,24,21.80
2013,07,13,15,26,21.80
2013,07,13,15,27,21.80
2013,07,13,15,28,21.80
2013,07,13,15,29,21.80
2013,07,13,15,31,21.80
2013,07,13,15,32,21.90
2013,07,13,15,33,21.90
2013,07,13,15,35,22.00
2013,07,13,15,36,22.10
2013,07,13,15,37,22.20
2013,07,13,15,39,22.20
2013,07,13,15,40,22.20
2013,07,13,15,41,22.20
2013,07,13,15,42,22.30
2013,07,13,15,44,22.20
2013,07,13,15,45,22.30
2013,07,13,15,46,22.30
2013,07,13,15,47,22.30
2013,07,13,15,48,22.30
2013,07,13,15,49,22.30
2013,07,13,15,50,22.40
2013,07,13,15,51,22.50
2013,07,13,15,53,22.60
2013,07,13,15,54,22.60
2013,07,13,15,55,22.70
2013,07,13,15,56,22.80
2013,07,13,15,58,22.80
2013,07,13,15,59,22.80
2013,07,13,16,00,22.80
2013,07,13,16,02,22.80
2013,07,13,16,03,22.90
2013,07,13,16,04,23.00
2013,07,13,16,05,23.10
2013,07,13,16,06,23.10
2013,07,13,16,07,23.20
2013,07,13,16,08,23.20
2013,07,13,16,09,23.30
2013,07,13,16,11,23.40
2013,07,13,16,12,23.40
2013,07,13,16,13,23.40
2013,07,13,16,15,23.40
2013,07,13,16,16,23.40
2013,07,13,16,17,23.40
2013,07,13,16,18,23.30
2013,07,13,16,19,23.40
2013,07,13,16,21,23.30
2013,07,13,16,22,23.30
2013,07,13,16,23,23.30
2013,07,13,16,24,23.20
2013,07,13,16,25,23.20
2013,07,13,16,27,23.20
2013,07,13,16,28,23.20
2013,07,13,16,29,23.20
2013,07,13,16,31,23.20
2013,07,13,16,32,23.30
2013,07,13,16,33,23.30
2013,07,13,16,35,23.30
2013,07,13,16,36,23.30
2013,07,13,16,37,23.20
2013,07,13,16,38,23.10
2013,07,13,16,39,23.00
2013,07,13,16,40,22.90
2013,07,13,16,41,22.80
2013,07,13,16,42,22.80
2013,07,13,16,43,22.80
2013,07,13,16,44,22.80
2013,07,13,16,45,22.80
2013,07,13,16,46,22.80
2013,07,13,16,47,22.80
2013,07,13,16,48,22.70
2013,07,13,16,50,22.60
2013,07,13,16,51,22.40
2013,07,13,16,52,22.40
2013,07,13,16,53,22.30
2013,07,13,16,55,22.30
2013,07,13,16,56,22.20
2013,07,13,16,57,22.10
2013,07,13,16,58,22.10
2013,07,13,16,59,22.10
2013,07,13,17,00,22.20
2013,07,13,17,01,22.10
2013,07,13,17,02,22.10
2013,07,13,17,03,22.10
2013,07,13,17,04,22.10
2013,07,13,17,05,22.10
2013,07,13,17,06,22.10
2013,07,13,17,07,22.20
2013,07,13,17,08,22.20
2013,07,13,17,09,22.20
2013,07,13,17,10,22.10
2013,07,13,17,11,22.10
2013,07,13,17,12,22.20
2013,07,13,17,13,22.30
2013,07,13,17,14,22.30
2013,07,13,17,15,22.30
2013,07,13,17,16,22.30
2013,07,13,17,17,22.20
2013,07,13,17,19,22.20
2013,07,13,17,20,22.10
2013,07,13,17,21,22.10
2013,07,13,17,23,22.20
2013,07,13,17,24,22.30
2013,07,13,17,25,22.40
2013,07,13,17,27,22.50
2013,07,13,17,28,22.60
2013,07,13,17,29,22.50
2013,07,13,17,30,22.60
2013,07,13,17,31,22.60
2013,07,13,17,32,22.60
2013,07,13,17,33,22.60
2013,07,13,17,34,22.60
2013,07,13,17,35,22.60
2013,07,13,17,36,22.60
2013,07,13,17,38,22.50
2013,07,13,17,39,22.40
2013,07,13,17,40,22.40
2013,07,13,17,41,22.30
2013,07,13,17,42,22.30
2013,07,13,17,44,22.20
2013,07,13,17,45,22.20
2013,07,13,17,46,22.20
2013,07,13,17,47,22.10
2013,07,13,17,48,22.10
2013,07,13,17,49,22.10
2013,07,13,17,50,22.10
2013,07,13,17,51,22.00
2013,07,13,17,52,21.90
2013,07,13,17,53,21.90
2013,07,13,17,55,21.90
2013,07,13,17,56,21.90
2013,07,13,17,57,21.90
2013,07,13,17,58,21.80
2013,07,13,17,59,21.80
2013,07,13,18,00,21.80
2013,07,13,18,01,21.80
2013,07,13,18,02,21.80
2013,07,13,18,04,21.90
2013,07,13,18,05,22.00
2013,07,13,18,06,22.10
2013,07,13,18,07,22.10
2013,07,13,18,08,22.10
2013,07,13,18,09,22.00
2013,07,13,18,10,22.00
2013,07,13,18,11,21.90
2013,07,13,18,12,21.90
2013,07,13,18,13,21.90
2013,07,13,18,14,21.90
2013,07,13,18,15,21.90
2013,07,13,18,16,21.90
2013,07,13,18,18,21.90
2013,07,13,18,19,21.90
2013,07,13,18,20,21.80
2013,07,13,18,21,21.70
2013,07,13,18,22,21.70
2013,07,13,18,23,21.70
2013,07,13,18,24,21.60
2013,07,13,18,25,21.60
2013,07,13,18,27,21.60
2013,07,13,18,28,21.40
2013,07,13,18,29,21.30
2013,07,13,18,30,21.30
2013,07,13,18,31,21.40
2013,07,13,18,33,21.40
2013,07,13,18,34,21.50
2013,07,13,18,35,21.60
2013,07,13,18,37,21.60
2013,07,13,18,38,21.70
2013,07,13,18,39,21.70
2013,07,13,18,40,21.70
2013,07,13,18,42,21.70
2013,07,13,18,43,21.70
2013,07,13,18,44,21.80
2013,07,13,18,45,21.70
2013,07,13,18,47,21.70
2013,07,13,18,48,21.50
2013,07,13,18,49,21.40
2013,07,13,18,50,21.30
2013,07,13,18,52,21.30
2013,07,13,18,53,21.30
2013,07,13,18,54,21.30
2013,07,13,18,56,21.30
2013,07,13,18,57,21.30
2013,07,13,18,58,21.30
2013,07,13,18,59,21.30
2013,07,13,19,01,21.30
2013,07,13,19,02,21.30
2013,07,13,19,03,21.20
2013,07,13,19,04,21.10
2013,07,13,19,06,21.10
2013,07,13,19,07,21.20
2013,07,13,19,08,21.20
2013,07,13,19,09,21.20
2013,07,13,19,10,21.20
2013,07,13,19,12,21.30
2013,07,13,19,13,21.40
2013,07,13,19,14,21.40
2013,07,13,19,15,21.40
2013,07,13,19,17,21.40
2013,07,13,19,18,21.30
2013,07,13,19,19,21.30
2013,07,13,19,20,21.30
2013,07,13,19,21,21.30
2013,07,13,19,23,21.30
2013,07,13,19,24,21.40
2013,07,13,19,25,21.40
2013,07,13,19,26,21.40
2013,07,13,19,27,21.40
2013,07,13,19,28,21.50
2013,07,13,19,29,21.50
2013,07,13,19,30,21.50
2013,07,13,19,31,21.60
2013,07,13,19,33,21.60
2013,07,13,19,34,21.40
2013,07,13,19,35,21.40
2013,07,13,19,36,21.30
2013,07,13,19,37,21.30
2013,07,13,19,38,21.20
2013,07,13,19,39,21.20
2013,07,13,19,40,21.20
2013,07,13,19,41,21.10
2013,07,13,19,43,21.10
2013,07,13,19,44,21.10
2013,07,13,19,45,21.00
2013,07,13,19,47,20.90
2013,07,13,19,48,20.90
2013,07,13,19,49,20.90
2013,07,13,19,50,20.80
2013,07,13,19,52,20.80
2013,07,13,19,53,20.70
2013,07,13,19,54,20.70
2013,07,13,19,55,20.70
2013,07,13,19,57,20.70
2013,07,13,19,58,20.70
2013,07,13,19,59,20.70
2013,07,13,20,01,20.70
2013,07,13,20,02,20.70
2013,07,13,20,03,20.60
2013,07,13,20,05,20.60
2013,07,13,20,06,20.60
2013,07,13,20,07,20.60
2013,07,13,20,08,20.60
2013,07,13,20,09,20.50
2013,07,13,20,11,20.50
2013,07,13,20,12,20.40
2013,07,13,20,13,20.40
2013,07,13,20,14,20.30
2013,07,13,20,15,20.30
2013,07,13,20,17,20.30
2013,07,13,20,18,20.30
2013,07,13,20,19,20.30
2013,07,13,20,20,20.20
2013,07,13,20,22,20.20
2013,07,13,20,23,20.20
2013,07,13,20,24,20.10
2013,07,13,20,26,20.10
2013,07,13,20,27,20.00
2013,07,13,20,28,20.00
2013,07,13,20,30,19.90
2013,07,13,20,31,19.90
2013,07,13,20,32,19.90
2013,07,13,20,34,19.90
2013,07,13,20,35,19.90
2013,07,13,20,36,19.80
2013,07,13,20,37,19.80
2013,07,13,20,39,19.80
2013,07,13,20,40,19.80
2013,07,13,20,41,19.80
2013,07,13,20,43,19.70
2013,07,13,20,44,19.70
2013,07,13,20,45,19.70
2013,07,13,20,46,19.60
2013,07,13,20,47,19.60